����,���ϕ���(m/s),���ϕ���,�ő�u�ԕ���(m/s),�ő啗��������,�C��(��),���x(%),10���Ԉړ��ώZ�J��(mm),1���Ԉړ��ώZ�J��(mm),���J��(mm),�݌v�J��(mm)
2020-06-22T00:00:00+09:00,0.5,���k��,1.3,��,19,87.9,0,0,0,0
2020-06-22T00:01:00+09:00,0.5,���k��,1,��,18.9,87.5,0,0,0,0
2020-06-22T00:02:00+09:00,0.4,���k��,0.9,��,18.7,87.5,0,0,0,0
2020-06-22T00:03:00+09:00,0.4,�k��,0.9,��,18.6,87.8,0,0,0,0
2020-06-22T00:04:00+09:00,0.4,�k��,0.9,��,18.6,89.2,0,0,0,0
2020-06-22T00:05:00+09:00,0.4,�k��,0.9,��,18.7,89.7,0,0,0,0
2020-06-22T00:06:00+09:00,0.3,�k��,0.9,��,18.6,89.8,0,0,0,0
2020-06-22T00:07:00+09:00,0.3,�k�k��,0.9,��,18.8,90.1,0,0,0,0
2020-06-22T00:08:00+09:00,0.3,�k�k��,0.9,�k��,18.9,90.1,0,0,0,0
2020-06-22T00:09:00+09:00,0.4,�k,1.1,�k�k��,18.9,89.9,0,0,0,0
2020-06-22T00:10:00+09:00,0.4,�k,1.2,�k�k��,18.9,90.2,0,0,0,0
2020-06-22T00:11:00+09:00,0.4,�k,1.2,�k�k��,18.9,90.8,0,0,0,0
2020-06-22T00:12:00+09:00,0.5,�k�k��,1.2,�k�k��,19,91.1,0,0,0,0
2020-06-22T00:13:00+09:00,0.5,�k��,1.2,�k�k��,18.9,90.8,0,0,0,0
2020-06-22T00:14:00+09:00,0.5,�k��,1.2,�k�k��,18.7,89.6,0,0,0,0
2020-06-22T00:15:00+09:00,0.6,���k��,1.2,�k�k��,18.6,90.1,0,0,0,0
2020-06-22T00:16:00+09:00,0.6,���k��,1.2,�k�k��,18.7,91.2,0,0,0,0
2020-06-22T00:17:00+09:00,0.5,���k��,1.2,�k�k��,18.8,91.4,0,0,0,0
2020-06-22T00:18:00+09:00,0.5,���k��,1.2,�k�k��,18.7,91,0,0,0,0
2020-06-22T00:19:00+09:00,0.5,���k��,1.2,�k�k��,18.8,90.8,0,0,0,0
2020-06-22T00:20:00+09:00,0.5,���k��,1,�k��,18.8,90.4,0,0,0,0
2020-06-22T00:21:00+09:00,0.4,���k��,1,�k��,18.8,90.3,0,0,0,0
2020-06-22T00:22:00+09:00,0.5,���k��,1.1,�k��,18.8,89.9,0,0,0,0
2020-06-22T00:23:00+09:00,0.5,���k��,1.2,���k��,18.8,89.6,0,0,0,0
2020-06-22T00:24:00+09:00,0.6,���k��,1.3,���k��,18.8,89.6,0,0,0,0
2020-06-22T00:25:00+09:00,0.6,���k��,1.3,���k��,18.8,89.5,0,0,0,0
2020-06-22T00:26:00+09:00,0.6,�k��,1.3,���k��,18.7,89.3,0,0,0,0
2020-06-22T00:27:00+09:00,0.6,�k��,1.3,���k��,18.5,88.9,0,0,0,0
2020-06-22T00:28:00+09:00,0.6,�k��,1.3,���k��,18.3,89.3,0,0,0,0
2020-06-22T00:29:00+09:00,0.5,�k�k��,1.3,���k��,18.3,89.9,0,0,0,0
2020-06-22T00:30:00+09:00,0.5,�k�k��,1.3,���k��,18.1,90.5,0,0,0,0
2020-06-22T00:31:00+09:00,0.5,�k�k��,1.3,���k��,18.1,91,0,0,0,0
2020-06-22T00:32:00+09:00,0.5,�k��,1.3,���k��,18.1,91.8,0,0,0,0
2020-06-22T00:33:00+09:00,0.4,�k��,1.3,���k��,18.2,92.5,0,0,0,0
2020-06-22T00:34:00+09:00,0.3,�k�k��,0.9,���k��,18.2,92.5,0,0,0,0
2020-06-22T00:35:00+09:00,0.3,�k,0.7,�k,18.2,92.8,0,0,0,0
2020-06-22T00:36:00+09:00,0.3,�k�k��,0.7,�k,18.3,92.9,0,0,0,0
2020-06-22T00:37:00+09:00,0.3,�k,0.7,�k,18.3,93,0,0,0,0
2020-06-22T00:38:00+09:00,0.3,�k,0.7,�k,18.4,93.3,0,0,0,0
2020-06-22T00:39:00+09:00,0.4,�k�k��,0.7,�k,18.5,93.9,0,0,0,0
2020-06-22T00:40:00+09:00,0.4,�k�k��,0.7,�k,18.6,93.4,0,0,0,0
2020-06-22T00:41:00+09:00,0.4,�k�k��,0.7,�k,18.6,93.2,0,0,0,0
2020-06-22T00:42:00+09:00,0.4,�k�k��,0.8,�k�k��,18.7,93.4,0,0,0,0
2020-06-22T00:43:00+09:00,0.4,�k�k��,0.9,�k�k��,18.7,92.9,0,0,0,0
2020-06-22T00:44:00+09:00,0.5,�k,1.1,�k,18.6,92.7,0,0,0,0
2020-06-22T00:45:00+09:00,0.5,�k�k��,1.1,�k,18.6,92.7,0,0,0,0
2020-06-22T00:46:00+09:00,0.5,�k,1.1,�k,18.5,92.9,0,0,0,0
2020-06-22T00:47:00+09:00,0.5,�k,1.1,�k,18.5,92.8,0,0,0,0
2020-06-22T00:48:00+09:00,0.5,�k,1.1,�k,18.4,93.1,0,0,0,0
2020-06-22T00:49:00+09:00,0.5,�k,1.1,�k,18.4,93.5,0,0,0,0
2020-06-22T00:50:00+09:00,0.5,�k,1.1,�k,18.3,93.2,0,0,0,0
2020-06-22T00:51:00+09:00,0.4,�k,1.1,�k,18.3,93.3,0,0,0,0
2020-06-22T00:52:00+09:00,0.4,�k,1.1,�k,18.3,93.6,0,0,0,0
2020-06-22T00:53:00+09:00,0.4,�k,1.1,�k,18.3,94.1,0,0,0,0
2020-06-22T00:54:00+09:00,0.4,�k,1,�k�k��,18.4,94.1,0,0,0,0
2020-06-22T00:55:00+09:00,0.3,�k,1,�k�k��,18.4,93.9,0,0,0,0
2020-06-22T00:56:00+09:00,0.3,�k,1,�k�k��,18.4,93.9,0,0,0,0
2020-06-22T00:57:00+09:00,0.3,�k,1,�k�k��,18.4,93.7,0,0,0,0
2020-06-22T00:58:00+09:00,0.3,�k�k��,1,�k�k��,18.4,93.8,0,0,0,0
2020-06-22T00:59:00+09:00,0.3,�k,1,�k�k��,18.4,93.7,0,0,0,0
2020-06-22T01:00:00+09:00,0.3,�k,1,�k�k��,18.3,93.9,0,0,0,0
2020-06-22T01:01:00+09:00,0.4,�k�k��,1,�k�k��,18.3,93.8,0,0,0,0
2020-06-22T01:02:00+09:00,0.3,�k�k��,1,�k�k��,18.3,94,0,0,0,0
2020-06-22T01:03:00+09:00,0.3,�k�k��,0.7,�k,18.3,93.9,0,0,0,0
2020-06-22T01:04:00+09:00,0.3,�k�k��,0.7,�k,18.5,94.5,0,0,0,0
2020-06-22T01:05:00+09:00,0.3,�k�k��,0.7,�k,18.5,94.2,0,0,0,0
2020-06-22T01:06:00+09:00,0.3,�k,0.6,�k��,18.5,93.8,0,0,0,0
2020-06-22T01:07:00+09:00,0.3,�k,0.6,�k��,18.4,93.1,0,0,0,0
2020-06-22T01:08:00+09:00,0.3,�k,0.6,�k��,18.3,92.8,0,0,0,0
2020-06-22T01:09:00+09:00,0.2,�É�,0.6,�k��,18.2,93.1,0,0,0,0
2020-06-22T01:10:00+09:00,0.2,�É�,0.6,�k��,18.2,93.5,0,0,0,0
2020-06-22T01:11:00+09:00,0.2,�É�,0.4,���k��,18.3,94.2,0,0,0,0
2020-06-22T01:12:00+09:00,0.2,�É�,0.5,��,18.2,93.3,0,0,0,0
2020-06-22T01:13:00+09:00,0.2,�É�,0.5,��,18.3,93.7,0,0,0,0
2020-06-22T01:14:00+09:00,0.2,�É�,0.5,��,18.3,93.8,0,0,0,0
2020-06-22T01:15:00+09:00,0.2,�É�,0.5,��,18.3,93.9,0,0,0,0
2020-06-22T01:16:00+09:00,0.2,�É�,0.5,��,18.4,93.8,0,0,0,0
2020-06-22T01:17:00+09:00,0.2,�É�,0.5,��,18.3,92.6,0,0,0,0
2020-06-22T01:18:00+09:00,0.2,�É�,0.5,��,18.2,92.3,0,0,0,0
2020-06-22T01:19:00+09:00,0.2,�É�,0.5,��,18.2,92.3,0,0,0,0
2020-06-22T01:20:00+09:00,0.2,�É�,0.5,��,18.2,92.8,0,0,0,0
2020-06-22T01:21:00+09:00,0.2,�É�,0.5,��,18.2,92.8,0,0,0,0
2020-06-22T01:22:00+09:00,0.2,�É�,0.5,�k�k��,18.1,92.6,0,0,0,0
2020-06-22T01:23:00+09:00,0.2,�É�,0.5,�k�k��,18.1,92.9,0,0,0,0
2020-06-22T01:24:00+09:00,0.2,�É�,0.5,�k�k��,18,93,0,0,0,0
2020-06-22T01:25:00+09:00,0.2,�É�,0.5,�k�k��,18.1,93.8,0,0,0,0
2020-06-22T01:26:00+09:00,0.1,�É�,0.4,�k��,18.2,93.9,0,0,0,0
2020-06-22T01:27:00+09:00,0.1,�É�,0.4,�k��,18.2,93.9,0,0,0,0
2020-06-22T01:28:00+09:00,0.2,�É�,0.5,���쓌,18.3,93.8,0,0,0,0
2020-06-22T01:29:00+09:00,0.2,�É�,0.5,���쓌,18.3,93,0,0,0,0
2020-06-22T01:30:00+09:00,0.2,�É�,0.5,���쓌,18.3,92.9,0,0,0,0
2020-06-22T01:31:00+09:00,0.2,�É�,0.5,���쓌,18.3,92.5,0,0,0,0
2020-06-22T01:32:00+09:00,0.2,�É�,0.5,���쓌,18.1,92.1,0,0,0,0
2020-06-22T01:33:00+09:00,0.2,�É�,0.5,���쓌,18.1,92.3,0,0,0,0
2020-06-22T01:34:00+09:00,0.2,�É�,0.5,���쓌,18.2,92.8,0,0,0,0
2020-06-22T01:35:00+09:00,0.2,�É�,0.7,�k��,18.2,93.2,0,0,0,0
2020-06-22T01:36:00+09:00,0.2,�É�,0.7,�k��,18.2,93.3,0,0,0,0
2020-06-22T01:37:00+09:00,0.3,�k,0.7,�k��,18.2,93.3,0,0,0,0
2020-06-22T01:38:00+09:00,0.3,�k,0.7,�k��,18.2,93.5,0,0,0,0
2020-06-22T01:39:00+09:00,0.3,�k,0.7,�k��,18.1,93.3,0,0,0,0
2020-06-22T01:40:00+09:00,0.3,�k,0.7,�k��,18.2,93.8,0,0,0,0
2020-06-22T01:41:00+09:00,0.4,�k,0.7,�k��,18.2,93.6,0,0,0,0
2020-06-22T01:42:00+09:00,0.4,�k,0.7,�k��,18.2,93.6,0,0,0,0
2020-06-22T01:43:00+09:00,0.4,�k,0.7,�k��,18.3,94,0,0,0,0
2020-06-22T01:44:00+09:00,0.4,�k,0.7,�k��,18.2,93.4,0,0,0,0
2020-06-22T01:45:00+09:00,0.4,�k,0.7,�k,18,93,0,0,0,0
2020-06-22T01:46:00+09:00,0.4,�k,0.7,�k,18,93.2,0,0,0,0
2020-06-22T01:47:00+09:00,0.4,�k,0.8,���k��,18,93.8,0,0,0,0
2020-06-22T01:48:00+09:00,0.4,�k�k��,0.8,���k��,18,94.1,0,0,0,0
2020-06-22T01:49:00+09:00,0.4,�k�k��,0.8,���k��,18,94.2,0,0,0,0
2020-06-22T01:50:00+09:00,0.4,�k�k��,0.8,���k��,18.1,94.8,0,0,0,0
2020-06-22T01:51:00+09:00,0.4,�k�k��,0.8,���k��,18.1,94.7,0,0,0,0
2020-06-22T01:52:00+09:00,0.4,�k�k��,0.8,���k��,18.2,94.9,0,0,0,0
2020-06-22T01:53:00+09:00,0.5,�k�k��,1.2,�k��,18.3,94.8,0,0,0,0
2020-06-22T01:54:00+09:00,0.5,�k�k��,1.2,�k��,18.4,94.2,0,0,0,0
2020-06-22T01:55:00+09:00,0.4,�k�k��,1.2,�k��,18.1,92.9,0,0,0,0
2020-06-22T01:56:00+09:00,0.4,�k��,1.2,�k��,18,92.4,0,0,0,0
2020-06-22T01:57:00+09:00,0.4,�k�k��,1.2,�k��,18,93.3,0,0,0,0
2020-06-22T01:58:00+09:00,0.4,�k�k��,1.2,�k��,18.1,93.7,0,0,0,0
2020-06-22T01:59:00+09:00,0.3,�k��,1.2,�k��,17.9,93.3,0,0,0,0
2020-06-22T02:00:00+09:00,0.3,�k��,1.2,�k��,18,93.8,0,0,0,0
2020-06-22T02:01:00+09:00,0.3,���k��,1.2,�k��,18,94.3,0,0,0,0
2020-06-22T02:02:00+09:00,0.3,��,1.2,�k��,18.1,94.6,0,0,0,0
2020-06-22T02:03:00+09:00,0.3,���쓌,0.9,�k�k��,18,93.7,0,0,0,0
2020-06-22T02:04:00+09:00,0.3,���쓌,0.8,���쓌,18.1,93.4,0,0,0,0
2020-06-22T02:05:00+09:00,0.3,���쓌,0.8,���쓌,18.1,93.5,0,0,0,0
2020-06-22T02:06:00+09:00,0.3,��,0.8,���쓌,18.2,93.2,0,0,0,0
2020-06-22T02:07:00+09:00,0.4,��,0.8,���쓌,18.3,92.9,0,0,0,0
2020-06-22T02:08:00+09:00,0.4,��,0.8,���쓌,18.2,92.3,0,0,0,0
2020-06-22T02:09:00+09:00,0.5,��,0.8,���쓌,18.2,92.3,0,0,0,0
2020-06-22T02:10:00+09:00,0.5,��,0.8,���쓌,18.3,92.4,0,0,0,0
2020-06-22T02:11:00+09:00,0.5,��,0.8,���쓌,18.3,92.6,0,0,0,0
2020-06-22T02:12:00+09:00,0.4,��,0.8,���쓌,18.3,92,0,0,0,0
2020-06-22T02:13:00+09:00,0.4,��,0.8,���쓌,18.3,92.2,0,0,0,0
2020-06-22T02:14:00+09:00,0.3,���k��,0.7,���k��,18.2,92.1,0,0,0,0
2020-06-22T02:15:00+09:00,0.3,��,0.7,���k��,18.1,92.1,0,0,0,0
2020-06-22T02:16:00+09:00,0.2,�É�,0.7,���k��,18,92,0,0,0,0
2020-06-22T02:17:00+09:00,0.2,�É�,0.7,���k��,18,92.8,0,0,0,0
2020-06-22T02:18:00+09:00,0.2,�É�,0.7,���k��,18,93.2,0,0,0,0
2020-06-22T02:19:00+09:00,0.2,�É�,0.7,��,18.1,93.8,0,0,0,0
2020-06-22T02:20:00+09:00,0.2,�É�,0.7,��,18.2,94.2,0,0,0,0
2020-06-22T02:21:00+09:00,0.3,��,0.8,���k��,18.2,93.4,0,0,0,0
2020-06-22T02:22:00+09:00,0.3,��,0.9,���k��,18.2,93.1,0,0,0,0
2020-06-22T02:23:00+09:00,0.4,��,0.9,���k��,18.2,92.9,0,0,0,0
2020-06-22T02:24:00+09:00,0.4,��,0.9,���k��,18.3,93,0,0,0,0
2020-06-22T02:25:00+09:00,0.4,���k��,0.9,���k��,18.3,93,0,0,0,0
2020-06-22T02:26:00+09:00,0.4,���k��,0.9,���k��,18.3,92.8,0,0,0,0
2020-06-22T02:27:00+09:00,0.4,���k��,0.9,���k��,18.3,92.8,0,0,0,0
2020-06-22T02:28:00+09:00,0.4,���k��,0.9,���k��,18.3,92.7,0,0,0,0
2020-06-22T02:29:00+09:00,0.4,�k��,0.9,���k��,18.2,92.4,0,0,0,0
2020-06-22T02:30:00+09:00,0.3,�k��,0.9,���k��,18.2,92.7,0,0,0,0
2020-06-22T02:31:00+09:00,0.3,�k��,0.9,���k��,18,92.1,0,0,0,0
2020-06-22T02:32:00+09:00,0.2,�É�,0.6,���k��,18,92.8,0,0,0,0
2020-06-22T02:33:00+09:00,0.2,�É�,0.5,���k��,18,93.1,0,0,0,0
2020-06-22T02:34:00+09:00,0.2,�É�,0.5,���k��,17.9,93.5,0,0,0,0
2020-06-22T02:35:00+09:00,0.2,�É�,0.5,�k�k��,17.9,93.7,0,0,0,0
2020-06-22T02:36:00+09:00,0.3,�k�k��,1,�k�k��,17.9,94.2,0,0,0,0
2020-06-22T02:37:00+09:00,0.3,�k,1,�k�k��,17.9,94.7,0,0,0,0
2020-06-22T02:38:00+09:00,0.3,�k,1,�k�k��,17.9,95,0,0,0,0
2020-06-22T02:39:00+09:00,0.3,�k,1,�k�k��,17.9,94.7,0,0,0,0
2020-06-22T02:40:00+09:00,0.3,�k,1,�k�k��,17.9,94.7,0,0,0,0
2020-06-22T02:41:00+09:00,0.4,�k,1.2,�k��,17.9,95,0,0,0,0
2020-06-22T02:42:00+09:00,0.4,�k,1.2,�k��,17.9,94.8,0,0,0,0
2020-06-22T02:43:00+09:00,0.5,�k�k��,1.2,�k��,18.1,95.2,0,0,0,0
2020-06-22T02:44:00+09:00,0.5,�k��,1.2,�k��,18.1,95.2,0,0,0,0
2020-06-22T02:45:00+09:00,0.5,�k��,1.2,�k��,18.1,94.5,0,0,0,0
2020-06-22T02:46:00+09:00,0.5,���k��,1.2,�k��,18.1,93.9,0,0,0,0
2020-06-22T02:47:00+09:00,0.5,���k��,1.2,�k��,18.2,94.3,0,0,0,0
2020-06-22T02:48:00+09:00,0.6,���k��,1.2,�k��,18.2,93.9,0,0,0,0
2020-06-22T02:49:00+09:00,0.6,���k��,1.2,�k��,18.1,93,0,0,0,0
2020-06-22T02:50:00+09:00,0.6,���k��,1.2,�k��,18.1,93.4,0,0,0,0
2020-06-22T02:51:00+09:00,0.6,�k��,1.2,�k�k��,18.1,93.5,0,0,0,0
2020-06-22T02:52:00+09:00,0.6,�k��,1.2,�k�k��,18.1,93.9,0,0,0,0
2020-06-22T02:53:00+09:00,0.6,�k��,1.2,�k�k��,18,93.6,0,0,0,0
2020-06-22T02:54:00+09:00,0.6,�k��,1.2,�k�k��,18,93.9,0,0,0,0
2020-06-22T02:55:00+09:00,0.6,�k�k��,1.2,�k�k��,18,94,0,0,0,0
2020-06-22T02:56:00+09:00,0.5,�k�k��,1.2,�k�k��,17.9,93.9,0,0,0,0
2020-06-22T02:57:00+09:00,0.5,�k,1.2,�k�k��,18,94.5,0,0,0,0
2020-06-22T02:58:00+09:00,0.5,�k,1.2,�k�k��,18,94.5,0,0,0,0
2020-06-22T02:59:00+09:00,0.5,�k,1.2,�k�k��,17.9,94.3,0,0,0,0
2020-06-22T03:00:00+09:00,0.4,�k,0.8,�k,17.9,94,0,0,0,0
2020-06-22T03:01:00+09:00,0.4,�k,0.8,�k,17.9,94.5,0,0,0,0
2020-06-22T03:02:00+09:00,0.4,�k,0.8,�k,17.8,94.2,0,0,0,0
2020-06-22T03:03:00+09:00,0.4,�k,0.8,�k,17.9,94.8,0,0,0,0
2020-06-22T03:04:00+09:00,0.4,�k,0.8,�k�k��,18,95.2,0,0,0,0
2020-06-22T03:05:00+09:00,0.4,�k�k��,0.9,�k��,18.1,95.4,0,0,0,0
2020-06-22T03:06:00+09:00,0.4,�k�k��,0.9,�k��,18.1,95.4,0,0,0,0
2020-06-22T03:07:00+09:00,0.5,�k�k��,0.9,�k��,18.2,95.3,0,0,0,0
2020-06-22T03:08:00+09:00,0.5,�k�k��,0.9,�k��,18.2,95.1,0,0,0,0
2020-06-22T03:09:00+09:00,0.5,�k�k��,0.9,�k��,18.2,94.7,0,0,0,0
2020-06-22T03:10:00+09:00,0.5,�k�k��,0.9,�k��,18.2,94.5,0,0,0,0
2020-06-22T03:11:00+09:00,0.5,�k,0.9,�k��,18.1,94.3,0,0,0,0
2020-06-22T03:12:00+09:00,0.5,�k,0.9,�k��,18.1,94.2,0,0,0,0
2020-06-22T03:13:00+09:00,0.4,�k,0.9,�k��,18.1,94.1,0,0,0,0
2020-06-22T03:14:00+09:00,0.4,�k�k��,0.9,�k��,18,94.4,0,0,0,0
2020-06-22T03:15:00+09:00,0.4,�k�k��,0.8,�k�k��,18.1,94.6,0,0,0,0
2020-06-22T03:16:00+09:00,0.3,�k�k��,0.8,�k�k��,18,94.5,0,0,0,0
2020-06-22T03:17:00+09:00,0.2,�É�,0.8,�k�k��,17.9,94.1,0,0,0,0
2020-06-22T03:18:00+09:00,0.2,�É�,0.7,�k�k��,17.9,94.6,0,0,0,0
2020-06-22T03:19:00+09:00,0.1,�É�,0.4,���k��,17.9,94.7,0,0,0,0
2020-06-22T03:20:00+09:00,0.2,�É�,0.4,���k��,17.9,94.9,0,0,0,0
2020-06-22T03:21:00+09:00,0.2,�É�,0.4,���k��,18,95,0,0,0,0
2020-06-22T03:22:00+09:00,0.2,�É�,0.5,�k��,18.1,95.1,0,0,0,0
2020-06-22T03:23:00+09:00,0.2,�É�,0.5,�k��,18.1,94.9,0,0,0,0
2020-06-22T03:24:00+09:00,0.2,�É�,0.5,�k��,18.1,94.6,0,0,0,0
2020-06-22T03:25:00+09:00,0.2,�É�,0.5,�k��,18.1,94.2,0,0,0,0
2020-06-22T03:26:00+09:00,0.2,�É�,0.5,�k��,18,93.5,0,0,0,0
2020-06-22T03:27:00+09:00,0.2,�É�,0.5,�k��,17.9,93.6,0,0,0,0
2020-06-22T03:28:00+09:00,0.2,�É�,0.5,�k��,17.8,93.8,0,0,0,0
2020-06-22T03:29:00+09:00,0.2,�É�,0.5,�k��,17.7,94.2,0,0,0,0
2020-06-22T03:30:00+09:00,0.2,�É�,0.5,�k��,17.7,94.7,0,0,0,0
2020-06-22T03:31:00+09:00,0.2,�É�,0.5,�k��,17.7,95.1,0,0,0,0
2020-06-22T03:32:00+09:00,0.1,�É�,0.4,�k�k��,17.8,95.3,0,0,0,0
2020-06-22T03:33:00+09:00,0.1,�É�,0.3,�k�k��,17.9,95.4,0,0,0,0
2020-06-22T03:34:00+09:00,0.2,�É�,0.4,�k�k��,18,95.5,0,0,0,0
2020-06-22T03:35:00+09:00,0.2,�É�,0.5,�k�k��,18,95.4,0,0,0,0
2020-06-22T03:36:00+09:00,0.2,�É�,0.5,�k�k��,18,95.2,0,0,0,0
2020-06-22T03:37:00+09:00,0.3,�k�k��,0.6,�k�k��,18,95,0,0,0,0
2020-06-22T03:38:00+09:00,0.3,�k,0.6,�k�k��,18,94.7,0,0,0,0
2020-06-22T03:39:00+09:00,0.3,�k,0.6,�k�k��,18.1,94.6,0,0,0,0
2020-06-22T03:40:00+09:00,0.3,�k�k��,0.6,�k�k��,18,94.4,0,0,0,0
2020-06-22T03:41:00+09:00,0.3,�k�k��,0.6,�k�k��,18,94.4,0,0,0,0
2020-06-22T03:42:00+09:00,0.3,�k�k��,0.6,�k�k��,17.9,94.1,0,0,0,0
2020-06-22T03:43:00+09:00,0.3,�k�k��,0.6,�k�k��,17.9,94.1,0,0,0,0
2020-06-22T03:44:00+09:00,0.3,�k�k��,0.6,�k�k��,17.9,94.7,0,0,0,0
2020-06-22T03:45:00+09:00,0.3,�k�k��,0.6,�k�k��,17.8,94.2,0,0,0,0
2020-06-22T03:46:00+09:00,0.3,�k,0.6,�k�k��,17.6,94.1,0,0,0,0
2020-06-22T03:47:00+09:00,0.2,�É�,0.5,�k�k��,17.6,94.5,0,0,0,0
2020-06-22T03:48:00+09:00,0.2,�É�,0.5,�k�k��,17.7,95.1,0,0,0,0
2020-06-22T03:49:00+09:00,0.2,�É�,0.7,���쓌,17.8,95.5,0,0,0,0
2020-06-22T03:50:00+09:00,0.2,�É�,0.7,���쓌,17.8,95.6,0,0,0,0
2020-06-22T03:51:00+09:00,0.2,�É�,0.7,���쓌,17.7,95.1,0,0,0,0
2020-06-22T03:52:00+09:00,0.2,�É�,0.7,���쓌,17.8,95.2,0,0,0,0
2020-06-22T03:53:00+09:00,0.2,�É�,0.7,���쓌,17.7,95,0,0,0,0
2020-06-22T03:54:00+09:00,0.2,�É�,0.7,���쓌,17.6,95,0,0,0,0
2020-06-22T03:55:00+09:00,0.2,�É�,0.7,���쓌,17.6,95.1,0,0,0,0
2020-06-22T03:56:00+09:00,0.2,�É�,0.7,���쓌,17.6,95.2,0,0,0,0
2020-06-22T03:57:00+09:00,0.2,�É�,0.7,���쓌,17.6,95.2,0,0,0,0
2020-06-22T03:58:00+09:00,0.2,�É�,0.7,���쓌,17.6,95.4,0,0,0,0
2020-06-22T03:59:00+09:00,0.1,�É�,0.6,���쓌,17.7,95.6,0,0,0,0
2020-06-22T04:00:00+09:00,0.1,�É�,0.6,��,17.8,95.8,0,0,0,0
2020-06-22T04:01:00+09:00,0.1,�É�,0.6,��,17.8,95.7,0,0,0,0
2020-06-22T04:02:00+09:00,0.2,�É�,0.6,��,17.6,95.2,0,0,0,0
2020-06-22T04:03:00+09:00,0.2,�É�,0.6,��,17.6,95.1,0,0,0,0
2020-06-22T04:04:00+09:00,0.2,�É�,0.6,��,17.6,95.2,0,0,0,0
2020-06-22T04:05:00+09:00,0.2,�É�,0.6,��,17.6,95.4,0,0,0,0
2020-06-22T04:06:00+09:00,0.2,�É�,0.6,��,17.7,95.5,0,0,0,0
2020-06-22T04:07:00+09:00,0.2,�É�,0.6,��,17.7,95.4,0,0,0,0
2020-06-22T04:08:00+09:00,0.2,�É�,0.6,��,17.7,95.3,0,0,0,0
2020-06-22T04:09:00+09:00,0.3,���쓌,0.7,��,17.7,95.5,0,0,0,0
2020-06-22T04:10:00+09:00,0.3,���쓌,0.7,��,17.8,95.5,0,0,0,0
2020-06-22T04:11:00+09:00,0.3,��,0.7,��,17.8,95.4,0,0,0,0
2020-06-22T04:12:00+09:00,0.2,�É�,0.7,��,17.7,95.1,0,0,0,0
2020-06-22T04:13:00+09:00,0.2,�É�,0.7,��,17.7,95.1,0,0,0,0
2020-06-22T04:14:00+09:00,0.2,�É�,0.7,��,17.6,95.1,0,0,0,0
2020-06-22T04:15:00+09:00,0.2,�É�,0.7,��,17.6,95.2,0,0,0,0
2020-06-22T04:16:00+09:00,0.2,�É�,0.7,��,17.7,95.5,0,0,0,0
2020-06-22T04:17:00+09:00,0.2,�É�,0.7,��,17.7,95.4,0,0,0,0
2020-06-22T04:18:00+09:00,0.3,���k��,0.7,��,17.7,95.4,0,0,0,0
2020-06-22T04:19:00+09:00,0.2,�É�,0.7,���k��,17.7,95.2,0,0,0,0
2020-06-22T04:20:00+09:00,0.2,�É�,0.7,��,17.8,95.4,0,0,0,0
2020-06-22T04:21:00+09:00,0.3,��,0.9,���쓌,17.8,95.3,0,0,0,0
2020-06-22T04:22:00+09:00,0.3,���쓌,1,���쓌,17.8,95.3,0,0,0,0
2020-06-22T04:23:00+09:00,0.4,���쓌,1,���쓌,17.8,95.2,0,0,0,0
2020-06-22T04:24:00+09:00,0.4,���쓌,1,���쓌,17.7,94.8,0,0,0,0
2020-06-22T04:25:00+09:00,0.4,���쓌,1,���쓌,17.6,94.9,0,0,0,0
2020-06-22T04:26:00+09:00,0.4,���쓌,1,���쓌,17.6,95.1,0,0,0,0
2020-06-22T04:27:00+09:00,0.4,���쓌,1,���쓌,17.6,95.3,0,0,0,0
2020-06-22T04:28:00+09:00,0.4,���쓌,1,���쓌,17.6,95.2,0,0,0,0
2020-06-22T04:29:00+09:00,0.3,���쓌,1,���쓌,17.5,95.3,0,0,0,0
2020-06-22T04:30:00+09:00,0.3,���k��,1,���쓌,17.6,95.5,0,0,0,0
2020-06-22T04:31:00+09:00,0.2,�É�,1,���쓌,17.6,95.6,0,0,0,0
2020-06-22T04:32:00+09:00,0.2,�É�,1,���쓌,17.7,95.8,0,0,0,0
2020-06-22T04:33:00+09:00,0.2,�É�,0.5,�k�k��,17.6,95.8,0,0,0,0
2020-06-22T04:34:00+09:00,0.2,�É�,0.5,�k�k��,17.6,95.6,0,0,0,0
2020-06-22T04:35:00+09:00,0.2,�É�,0.5,�k�k��,17.6,95.7,0,0,0,0
2020-06-22T04:36:00+09:00,0.2,�É�,0.5,�k�k��,17.6,95.8,0,0,0,0
2020-06-22T04:37:00+09:00,0.2,�É�,0.5,�k�k��,17.7,95.8,0,0,0,0
2020-06-22T04:38:00+09:00,0.2,�É�,0.5,�k�k��,17.7,95.8,0,0,0,0
2020-06-22T04:39:00+09:00,0.2,�É�,0.5,�k�k��,17.7,95.9,0,0,0,0
2020-06-22T04:40:00+09:00,0.2,�É�,0.5,�k�k��,17.7,95.8,0,0,0,0
2020-06-22T04:41:00+09:00,0.2,�É�,0.5,�k�k��,17.7,95.6,0,0,0,0
2020-06-22T04:42:00+09:00,0.2,�É�,0.5,�k�k��,17.7,95.6,0,0,0,0
2020-06-22T04:43:00+09:00,0.2,�É�,0.5,�k��,17.8,95.7,0,0,0,0
2020-06-22T04:44:00+09:00,0.2,�É�,0.5,�k��,17.8,95.8,0,0,0,0
2020-06-22T04:45:00+09:00,0.2,�É�,0.6,��,17.8,95.7,0,0,0,0
2020-06-22T04:46:00+09:00,0.3,�k��,0.8,���쓌,17.7,95.4,0,0,0,0
2020-06-22T04:47:00+09:00,0.3,�k��,0.9,���쓌,17.7,95.3,0,0,0,0
2020-06-22T04:48:00+09:00,0.4,���k��,0.9,���쓌,17.8,95.5,0,0,0,0
2020-06-22T04:49:00+09:00,0.4,���k��,0.9,���쓌,17.8,95.3,0,0,0,0
2020-06-22T04:50:00+09:00,0.4,���k��,0.9,���쓌,17.7,95.3,0,0,0,0
2020-06-22T04:51:00+09:00,0.5,��,1,��,17.8,95.2,0,0,0,0
2020-06-22T04:52:00+09:00,0.5,��,1,��,17.8,95.2,0,0,0,0
2020-06-22T04:53:00+09:00,0.5,��,1,��,17.8,95.1,0,0,0,0
2020-06-22T04:54:00+09:00,0.6,��,1,��,17.8,95.1,0,0,0,0
2020-06-22T04:55:00+09:00,0.6,��,1,��,17.8,95.1,0,0,0,0
2020-06-22T04:56:00+09:00,0.6,��,1,��,17.8,95,0,0,0,0
2020-06-22T04:57:00+09:00,0.5,��,1,��,17.8,94.8,0,0,0,0
2020-06-22T04:58:00+09:00,0.5,��,1,��,17.8,94.6,0,0,0,0
2020-06-22T04:59:00+09:00,0.4,���k��,1,��,17.7,94.5,0,0,0,0
2020-06-22T05:00:00+09:00,0.4,���k��,1,��,17.7,94.7,0,0,0,0
2020-06-22T05:01:00+09:00,0.4,���k��,1,��,17.7,95,0,0,0,0
2020-06-22T05:02:00+09:00,0.3,�k��,0.9,���k��,17.7,95.3,0,0,0,0
2020-06-22T05:03:00+09:00,0.3,�k��,0.8,���k��,17.6,95,0,0,0,0
2020-06-22T05:04:00+09:00,0.2,�É�,0.6,���k��,17.6,95.2,0,0,0,0
2020-06-22T05:05:00+09:00,0.2,�É�,0.5,�k,17.5,95.2,0,0,0,0
2020-06-22T05:06:00+09:00,0.2,�É�,0.6,�k�k��,17.6,95.4,0,0,0,0
2020-06-22T05:07:00+09:00,0.3,�k,0.6,�k�k��,17.6,95.6,0,0,0,0
2020-06-22T05:08:00+09:00,0.3,�k,0.6,�k�k��,17.6,95.8,0,0,0,0
2020-06-22T05:09:00+09:00,0.3,�k,0.7,�k��,17.7,95.8,0,0,0,0
2020-06-22T05:10:00+09:00,0.4,�k�k��,0.7,�k��,17.7,95.7,0,0,0,0
2020-06-22T05:11:00+09:00,0.4,�k�k��,0.7,�k��,17.8,95.7,0,0,0,0
2020-06-22T05:12:00+09:00,0.4,�k�k��,0.7,�k��,17.8,95.5,0,0,0,0
2020-06-22T05:13:00+09:00,0.5,�k�k��,1,�k�k��,17.8,95.5,0,0,0,0
2020-06-22T05:14:00+09:00,0.6,�k�k��,1.7,�k�k��,17.8,95.3,0,0,0,0
2020-06-22T05:15:00+09:00,0.6,�k�k��,1.7,�k�k��,17.7,95.1,0,0,0,0
2020-06-22T05:16:00+09:00,0.7,�k�k��,1.7,�k�k��,17.7,95.3,0,0,0,0
2020-06-22T05:17:00+09:00,0.7,�k�k��,1.7,�k�k��,17.7,95.4,0,0,0,0
2020-06-22T05:18:00+09:00,0.7,�k�k��,1.7,�k�k��,17.6,95.2,0,0,0,0
2020-06-22T05:19:00+09:00,0.8,�k�k��,1.7,�k�k��,17.6,95.1,0,0,0,0
2020-06-22T05:20:00+09:00,0.8,�k�k��,1.7,�k�k��,17.6,95.4,0,0,0,0
2020-06-22T05:21:00+09:00,0.8,�k�k��,1.7,�k�k��,17.6,95.5,0,0,0,0
2020-06-22T05:22:00+09:00,0.8,�k�k��,1.7,�k�k��,17.6,95.7,0,0,0,0
2020-06-22T05:23:00+09:00,0.8,�k�k��,1.7,�k�k��,17.7,95.8,0,0,0,0
2020-06-22T05:24:00+09:00,0.8,�k�k��,1.7,�k�k��,17.7,95.7,0,0,0,0
2020-06-22T05:25:00+09:00,0.7,�k�k��,1.5,�k�k��,17.7,95.7,0,0,0,0
2020-06-22T05:26:00+09:00,0.7,�k�k��,1.5,�k�k��,17.7,95.6,0,0,0,0
2020-06-22T05:27:00+09:00,0.7,�k�k��,1.5,�k�k��,17.7,95.6,0,0,0,0
2020-06-22T05:28:00+09:00,0.6,�k�k��,1.4,�k�k��,17.6,95.5,0,0,0,0
2020-06-22T05:29:00+09:00,0.5,�k,1.1,�k��,17.6,95.5,0,0,0,0
2020-06-22T05:30:00+09:00,0.5,�k,1.3,�k,17.6,95.6,0,0,0,0
2020-06-22T05:31:00+09:00,0.5,�k,1.3,�k,17.6,95.7,0,0,0,0
2020-06-22T05:32:00+09:00,0.5,�k,1.3,�k,17.7,96,0,0,0,0
2020-06-22T05:33:00+09:00,0.5,�k,1.3,�k,17.7,95.9,0,0,0,0
2020-06-22T05:34:00+09:00,0.4,�k,1.3,�k,17.7,95.9,0,0,0,0
2020-06-22T05:35:00+09:00,0.4,�k,1.3,�k,17.8,95.8,0,0,0,0
2020-06-22T05:36:00+09:00,0.4,�k,1.3,�k,17.8,95.7,0,0,0,0
2020-06-22T05:37:00+09:00,0.4,�k,1.3,�k,17.7,95.6,0,0,0,0
2020-06-22T05:38:00+09:00,0.4,�k,1.3,�k,17.7,95.6,0,0,0,0
2020-06-22T05:39:00+09:00,0.4,�k,1.3,�k,17.8,95.7,0,0,0,0
2020-06-22T05:40:00+09:00,0.3,�k,1,�k,17.8,95.7,0,0,0,0
2020-06-22T05:41:00+09:00,0.2,�É�,0.8,�k�k��,17.8,95.6,0,0,0,0
2020-06-22T05:42:00+09:00,0.2,�É�,0.5,�k�k��,17.9,95.8,0,0,0,0
2020-06-22T05:43:00+09:00,0.2,�É�,0.6,�k��,17.9,95.8,0,0,0,0
2020-06-22T05:44:00+09:00,0.2,�É�,0.6,�k��,18,95.7,0,0,0,0
2020-06-22T05:45:00+09:00,0.3,�k�k��,0.8,���k��,18,95.5,0,0,0,0
2020-06-22T05:46:00+09:00,0.3,�k�k��,0.8,���k��,18,95.4,0,0,0,0
2020-06-22T05:47:00+09:00,0.3,�k��,0.8,���k��,18,95.2,0,0,0,0
2020-06-22T05:48:00+09:00,0.3,�k��,0.8,���k��,17.9,94.8,0,0,0,0
2020-06-22T05:49:00+09:00,0.2,�É�,0.8,���k��,17.9,95,0,0,0,0
2020-06-22T05:50:00+09:00,0.2,�É�,0.8,���k��,17.9,95.1,0,0,0,0
2020-06-22T05:51:00+09:00,0.2,�É�,0.8,���k��,18,95.2,0,0,0,0
2020-06-22T05:52:00+09:00,0.2,�É�,0.8,���k��,17.8,94.8,0,0,0,0
2020-06-22T05:53:00+09:00,0.2,�É�,0.8,���k��,17.8,94.6,0,0,0,0
2020-06-22T05:54:00+09:00,0.2,�É�,0.8,���k��,17.9,95.3,0,0,0,0
2020-06-22T05:55:00+09:00,0.2,�É�,0.5,�쐼,17.9,95.5,0,0,0,0
2020-06-22T05:56:00+09:00,0.1,�É�,0.5,�쐼,18.1,95.7,0,0,0,0
2020-06-22T05:57:00+09:00,0.2,�É�,0.5,�쐼,17.9,95.1,0,0,0,0
2020-06-22T05:58:00+09:00,0.2,�É�,0.5,�쐼,17.9,94.8,0,0,0,0
2020-06-22T05:59:00+09:00,0.2,�É�,0.5,�쐼,17.9,95.1,0,0,0,0
2020-06-22T06:00:00+09:00,0.2,�É�,0.5,�쐼,18.1,95.4,0,0,0,0
2020-06-22T06:01:00+09:00,0.2,�É�,0.5,�쐼,18,95,0,0,0,0
2020-06-22T06:02:00+09:00,0.2,�É�,0.7,�쐼,18,94.7,0,0,0,0
2020-06-22T06:03:00+09:00,0.2,�É�,0.7,�쐼,18,95.1,0,0,0,0
2020-06-22T06:04:00+09:00,0.3,�k�k��,0.8,�쐼,17.9,95.2,0,0,0,0
2020-06-22T06:05:00+09:00,0.3,���k��,0.8,�쐼,17.9,95.2,0,0,0,0
2020-06-22T06:06:00+09:00,0.4,��,0.8,�쐼,17.9,95.3,0,0,0,0
2020-06-22T06:07:00+09:00,0.4,���쐼,0.8,�쐼,17.9,95.5,0,0,0,0
2020-06-22T06:08:00+09:00,0.4,���쐼,0.8,�쐼,18,95.6,0,0,0,0
2020-06-22T06:09:00+09:00,0.4,���쐼,0.8,�쐼,18,95.8,0,0,0,0
2020-06-22T06:10:00+09:00,0.5,��,0.9,�k��,18,95.7,0,0,0,0
2020-06-22T06:11:00+09:00,0.5,��,0.9,�k��,18,95.6,0,0,0,0
2020-06-22T06:12:00+09:00,0.5,��,0.9,�k��,17.9,95.4,0,0,0,0
2020-06-22T06:13:00+09:00,0.5,���k��,0.9,�k��,18,95.5,0,0,0,0
2020-06-22T06:14:00+09:00,0.5,���k��,0.9,�k��,18,95.5,0,0,0,0
2020-06-22T06:15:00+09:00,0.4,���k��,0.9,�k��,18.1,95.7,0,0,0,0
2020-06-22T06:16:00+09:00,0.4,�k��,0.9,�k��,18.2,95.8,0,0,0,0
2020-06-22T06:17:00+09:00,0.4,�k��,0.9,�k��,18.1,95.6,0,0,0,0
2020-06-22T06:18:00+09:00,0.4,�k�k��,0.9,�k��,18.2,95.5,0,0,0,0
2020-06-22T06:19:00+09:00,0.4,�k�k��,0.9,�k��,18.2,95.6,0,0,0,0
2020-06-22T06:20:00+09:00,0.3,�k,0.9,�k�k��,18.3,95.6,0,0,0,0
2020-06-22T06:21:00+09:00,0.3,�k�k��,0.8,�k�k��,18.3,95.4,0,0,0,0
2020-06-22T06:22:00+09:00,0.3,�k��,0.8,�k�k��,18.4,95.4,0,0,0,0
2020-06-22T06:23:00+09:00,0.2,�É�,0.8,�k�k��,18.4,95.3,0,0,0,0
2020-06-22T06:24:00+09:00,0.3,�k��,0.8,�k�k��,18.5,95.2,0,0,0,0
2020-06-22T06:25:00+09:00,0.3,�k��,0.8,�k�k��,18.4,94.7,0,0,0,0
2020-06-22T06:26:00+09:00,0.3,���k��,0.8,�k�k��,18.4,94,0,0,0,0
2020-06-22T06:27:00+09:00,0.2,�É�,0.5,���쓌,18.5,94.4,0,0,0,0